Home   Weather   Cabinda   Past weeks

Flag for Angola Past Weather in Cabinda, Angola — Yesterday and Last 2 Weeks

84 °F

Broken clouds.

Feels Like: 91 °F
Forecast: 76 / 83 °F
Wind: 9 mph from Southwest

Location: Pointe Airport-Noire

Current Time: Oct 26, 2016 at 2:26:40 PM

Latest Report: Oct 26, 2016 at 1:00 PM

Visibility: N/A

Pressure: 29.80 "Hg

Humidity: 70%

Dew Point: 73 °F

Location of CabindaLocation

Past Weather in Cabinda — Graph


Cabinda Temperature Yesterday

Maximum temperature yesterday: 84 °F (at 2:00 PM)
Minimum temperature yesterday: 77 °F (at 6:00 AM)
Average temperature yesterday: 80 °F

High & Low Weather Summary for the Past Weeks

High86 °F (Oct 13, 9:00 AM)100% (Oct 16, 8:00 AM)29.98 "Hg (Oct 16, 8:00 AM)
Low75 °F (Oct 18, 6:00 AM)62% (Oct 13, 9:00 AM)29.77 "Hg (Oct 24, 4:00 PM)
Average80 °F85%29.88 "Hg
* Reported Oct 11 1:00 PM — Oct 26 1:00 PM, Cabinda, Weather by CustomWeather, © 2016

Note: Actual official high and low records may vary slightly from our data, if they occured in-between our weather recording intervals... More about our weather records


Cabinda Weather History for the Previous 24 Hours

Scroll right to see more
Time TempWeatherWind HumidityBarometerVisibility
1:00 PM
Wed, Oct 26
84 °FBroken clouds.9 mph70%29.80 "HgN/A
12:00 PM82 °FPartly sunny.12 mph70%29.83 "HgN/A
11:00 AM82 °FBroken clouds.10 mph74%29.83 "HgN/A
10:00 AM79 °FMore clouds than sun.10 mph84%29.86 "Hg5 mi
9:00 AM79 °FMore clouds than sun.10 mph89%29.86 "Hg5 mi
8:00 AM77 °FBroken clouds.12 mph94%29.83 "Hg4 mi
7:00 AM77 °FMore clouds than sun.12 mph94%29.80 "Hg4 mi
6:00 AM77 °FDrizzle. More clouds than sun.12 mph94%29.80 "Hg4 mi
5:00 AM77 °FDrizzle. Mostly cloudy.9 mph94%29.80 "Hg4 mi
4:00 AM77 °FDrizzle. Mostly cloudy.10 mph94%29.77 "Hg4 mi
3:00 AM77 °FDrizzle. Mostly cloudy.No wind94%29.77 "Hg5 mi
2:00 AM77 °FOvercast.1 mph94%29.80 "Hg5 mi
1:00 AM77 °FPartly cloudy.2 mph94%29.80 "Hg5 mi
12:00 AM77 °FPassing clouds.No wind94%29.83 "Hg5 mi
11:00 PM
Tue, Oct 25
79 °FPassing clouds.3 mph89%29.83 "Hg5 mi
10:00 PM79 °FPassing clouds.6 mph89%29.83 "Hg5 mi
9:00 PM79 °FPassing clouds.6 mph89%29.83 "Hg5 mi
8:00 PM79 °FPassing clouds.8 mph89%29.83 "Hg5 mi
7:00 PM81 °FPartly cloudy.8 mph84%29.80 "Hg5 mi
6:00 PM81 °FMore clouds than sun.10 mph84%29.77 "Hg5 mi
5:00 PM82 °FBroken clouds.13 mph79%29.77 "HgN/A
4:00 PM82 °FBroken clouds.16 mph79%29.77 "HgN/A
3:00 PM84 °FBroken clouds.13 mph74%29.77 "HgN/A
2:00 PM84 °FBroken clouds.14 mph74%29.80 "HgN/A
Weather by CustomWeather, © 2016

See weather overviewHow to use our weather pages